Weather Service Report


922 
ASUS45 KABQ 270210
RWRNM 
NEW MEXICO REGIONAL WEATHER ROUNDUP
NATIONAL WEATHER SERVICE ALBUQUERQUE NM
800 PM MDT FRI AUG 26 2016

NOTE: "FAIR" MEANS FEW OR NO CLOUDS BELOW 12,000 FEET AGL WITH NO
       SIGNIFICANT WEATHER OR OBSTRUCTIONS TO VISION.

      THIS PRODUCT IS RELEASED AS TWO VERSIONS.  ONE VERSION NEAR
      THE TOP OF THE HOUR CONTAINING PRELIMINARY DATA FROM ALBUQUERQUE
      AND OTHER STATIONS.  A FINAL VERSION WITH ADDITIONAL DATA IS 
      ISSUED ABOUT 10 MINUTES AFTER THE HOUR.
 
NMZ501-503-504-510>518-270300-
NORTHWEST PLATEAU/NORTHCENTRAL MOUNTAINS
  
CITY           SKY/WX    TMP DP  RH WIND       PRES   REMARKS
FARMINGTON     FAIR      71  38  29 W6        30.12S                  
LOS ALAMOS     MOCLDY    63  47  57 W5        30.27S                  
SANTA FE       CLOUDY    68  52  56 CALM      30.20R                  
TAOS           FAIR      63  41  45 SW9       30.25R                  
ANGEL FIRE     FAIR      53  44  73 SW5       30.33R                  

$$
NMZ402-403-502-505>509-270300-
WESTCENTRAL MOUNTAINS/SOUTHWEST MOUNTAINS
  
CITY           SKY/WX    TMP DP  RH WIND       PRES   REMARKS
GALLUP         FAIR      68  40  35 W6        30.20S                  
GRANTS         FAIR      64  46  52 SW6       30.23S                  
SILVER CITY    CLOUDY    68  53  57 N12       30.17R THUNDER          

$$
NMZ407-409-411-412-270300-
SOUTHERN DESERTS
  
CITY           SKY/WX    TMP DP  RH WIND       PRES   REMARKS
DEMING           N/A     78  54  43 N10       30.09R                  
LAS CRUCES     FAIR      75  54  47 NE10      30.09R                  
ALAMOGORDO     MOCLDY    68  57  68 W10       30.15R                  
T OR C         MOCLDY    75  46  35 NW12      30.11S                  

$$
NMZ519>523-270300-
CENTRAL VALLEYS/CENTRAL HIGHLANDS
  
CITY           SKY/WX    TMP DP  RH WIND       PRES   REMARKS
ALBUQUERQUE    MOCLDY    74  46  36 NW6       30.15R                  
DOUBLE EAGLE   MOCLDY    70  46  43 W6        30.18S                  
MORIARTY ARPT  CLOUDY    65  52  62 SE14      30.23R                  
CLINES CORNERS CLOUDY    60  50  69 S13       30.29R                  
BELEN          FAIR      73  44  35 N6        30.14S                  
SOCORRO        LGT RAIN  75  43  31 S3        30.11S                  

$$
NMZ524>526-539-540-270300-
SOUTHCENTRAL MOUNTAINS
  
CITY           SKY/WX    TMP DP  RH WIND       PRES   REMARKS
RUIDOSO          N/A     63  50  63 CALM      30.28S                  

$$
NMZ527>531-270300-
NORTHEAST HIGHLANDS/NORTHEAST PLAINS
  
CITY           SKY/WX    TMP DP  RH WIND       PRES   REMARKS
LAS VEGAS      CLOUDY    56  52  86 SW9       30.25R                  
RATON          FAIR      61  49  64 S9        30.17R                  
CLAYTON        FAIR      66  54  65 W10       30.09R                  

$$
NMZ532>537-270300-
EASTCENTRAL PLAINS
  
CITY           SKY/WX    TMP DP  RH WIND       PRES   REMARKS
TUCUMCARI      FAIR      70  56  61 N5        30.05F                  
CANNON AFB     MOCLDY    71  62  74 SE12      30.10R                  
CLOVIS AIRPORT CLOUDY    64  55  72 E13       30.12R THUNDER          

$$
NMZ028-029-538-270300-
SOUTHEAST PLAINS
  
CITY           SKY/WX    TMP DP  RH WIND       PRES   REMARKS
ROSWELL        FAIR      75  61  61 S7        30.05R                  
ARTESIA        FAIR      77  64  65 S7        30.04S                  
CARLSBAD       FAIR      76  64  66 S7        30.03R                  
HOBBS          FAIR      72  66  83 SE9       30.08F                  


$$
  

Return to Home page


Western Regional Climate Center, wrcc@dri.edu